TimeIST,TemperatureF,Dew PointF,Humidity,Sea Level PressureIn,VisibilityMPH,Wind Direction,Wind SpeedMPH,Gust SpeedMPH,PrecipitationIn,Events,Conditions,WindDirDegrees,DateUTC
12:10 AM,75.2,62.6,65,29.83,1.9,NW,4.6,-,N/A,,Haze,310,2014-02-07 18:40:00
12:40 AM,75.2,62.6,65,29.83,1.9,NNE,3.5,-,N/A,,Haze,20,2014-02-07 19:10:00
1:10 AM,73.4,64.4,73,29.83,1.9,NNW,5.8,-,N/A,,Haze,340,2014-02-07 19:40:00
1:40 AM,73.4,64.4,73,29.83,1.7,NNW,5.8,-,N/A,,Haze,340,2014-02-07 20:10:00
2:10 AM,73.4,66.2,78,29.83,1.6,NNW,5.8,-,N/A,,Haze,340,2014-02-07 20:40:00
2:30 AM,70,64,76,29.83,1,Calm,Calm,,,,Haze,,2014-02-07 21:00:00
2:40 AM,73.4,66.2,78,29.80,1.6,NNE,6.9,-,N/A,,Haze,20,2014-02-07 21:10:00
3:10 AM,71.6,66.2,83,29.80,1.4,North,5.8,-,N/A,,Haze,360,2014-02-07 21:40:00
3:40 AM,71.6,66.2,83,29.80,1.6,ENE,4.6,-,N/A,,Haze,70,2014-02-07 22:10:00
4:10 AM,73.4,66.2,78,29.80,1.4,North,3.5,-,N/A,,Haze,360,2014-02-07 22:40:00
4:40 AM,71.6,64.4,78,29.80,1.6,Calm,Calm,-,N/A,,Haze,0,2014-02-07 23:10:00
5:10 AM,71.6,64.4,78,29.80,1.7,South,3.5,-,N/A,,Haze,170,2014-02-07 23:40:00
5:30 AM,68,64,84,29.81,1,Calm,Calm,,,,Haze,,2014-02-08 00:00:00
5:40 AM,71.6,64.4,78,29.80,1.4,Calm,Calm,-,N/A,,Haze,0,2014-02-08 00:10:00
6:10 AM,69.8,64.4,83,29.80,1.6,Calm,Calm,-,N/A,,Haze,0,2014-02-08 00:40:00
6:40 AM,71.6,64.4,78,29.83,1.6,Calm,Calm,-,N/A,,Haze,0,2014-02-08 01:10:00
7:10 AM,71.6,62.6,73,29.83,1.4,NNE,4.6,-,N/A,,Haze,30,2014-02-08 01:40:00
7:40 AM,71.6,62.6,73,29.86,1.4,ENE,3.5,-,N/A,,Haze,60,2014-02-08 02:10:00
8:10 AM,71.6,62.6,73,29.86,1.6,North,3.5,-,N/A,,Haze,10,2014-02-08 02:40:00
8:30 AM,69,64,77,29.87,1,Calm,Calm,,,,Haze,,2014-02-08 03:00:00
8:40 AM,73.4,64.4,73,29.86,1.6,NE,3.5,-,N/A,,Haze,50,2014-02-08 03:10:00
9:10 AM,75.2,64.4,69,29.89,1.7,North,4.6,-,N/A,,Haze,360,2014-02-08 03:40:00
9:40 AM,77.0,64.4,65,29.89,1.7,NNW,3.5,-,N/A,,Haze,330,2014-02-08 04:10:00
10:10 AM,78.8,62.6,57,29.89,1.7,NNE,4.6,-,N/A,,Haze,30,2014-02-08 04:40:00
11:10 AM,82.4,59.0,45,29.89,2.2,NW,6.9,-,N/A,,Smoke,320,2014-02-08 05:40:00
11:30 AM,82,62,40,29.90,1,North,3.5,,,,Smoke,0,2014-02-08 06:00:00
11:40 AM,84.2,60.8,45,29.89,2.2,NNW,8.1,-,N/A,,Smoke,340,2014-02-08 06:10:00
12:10 PM,84.2,62.6,48,29.86,2.2,NW,6.9,-,N/A,,Smoke,310,2014-02-08 06:40:00
12:40 PM,82.4,69.8,66,29.86,2.2,WNW,11.5,-,N/A,,Smoke,300,2014-02-08 07:10:00
1:10 PM,82.4,69.8,66,29.83,2.2,West,12.7,-,N/A,,Haze,280,2014-02-08 07:40:00
1:40 PM,82.4,68.0,62,29.83,2.2,WNW,12.7,-,N/A,,Haze,290,2014-02-08 08:10:00
2:10 PM,80.6,66.2,61,29.80,2.2,WNW,13.8,-,N/A,,Haze,290,2014-02-08 08:40:00
2:30 PM,82,67,52,29.81,1,North,6.9,,,,Smoke,0,2014-02-08 09:00:00
2:40 PM,82.4,66.2,58,29.80,2.2,WNW,8.1,-,N/A,,Haze,300,2014-02-08 09:10:00
3:10 PM,82.4,66.2,58,29.77,2.2,WNW,11.5,-,N/A,,Haze,290,2014-02-08 09:40:00
3:40 PM,80.6,66.2,61,29.77,2.2,WNW,12.7,-,N/A,,Haze,290,2014-02-08 10:10:00
4:10 PM,80.6,64.4,58,29.77,2.2,WNW,10.4,-,N/A,,Smoke,300,2014-02-08 10:40:00
4:40 PM,80.6,64.4,58,29.77,2.2,NW,9.2,-,N/A,,Smoke,310,2014-02-08 11:10:00
5:10 PM,78.8,64.4,61,29.80,2.5,WNW,11.5,-,N/A,,Smoke,300,2014-02-08 11:40:00
5:30 PM,79,65,52,29.80,1,North,6.9,,,,Smoke,0,2014-02-08 12:00:00
5:40 PM,78.8,62.6,57,29.80,2.5,WNW,10.4,-,N/A,,Smoke,300,2014-02-08 12:10:00
6:10 PM,77.0,62.6,61,29.80,2.5,NW,9.2,-,N/A,,Smoke,320,2014-02-08 12:40:00
6:40 PM,75.2,64.4,69,29.83,2.2,NW,8.1,-,N/A,,Haze,310,2014-02-08 13:10:00
7:40 PM,73.4,64.4,73,29.83,1.9,NW,9.2,-,N/A,,Haze,320,2014-02-08 14:10:00
8:10 PM,75.2,62.6,65,29.86,1.9,NW,8.1,-,N/A,,Haze,320,2014-02-08 14:40:00
8:30 PM,73,62,59,29.86,1,North,5.8,,,,Smoke,0,2014-02-08 15:00:00
8:40 PM,73.4,62.6,69,29.86,1.9,NNW,8.1,-,N/A,,Haze,330,2014-02-08 15:10:00
11:10 PM,73.4,62.6,69,29.86,1.9,NNE,4.6,-,N/A,,Haze,30,2014-02-08 17:40:00
11:30 PM,72,63,65,29.88,1,Calm,Calm,,,,Smoke,,2014-02-08 18:00:00
11:40 PM,71.6,62.6,73,29.86,1.9,NE,5.8,-,N/A,,Haze,40,2014-02-08 18:10:00